Total_Precipitation_Accumulation
0.00 0.00 0.00 0.00 0.00 0.00 0.00 0.00 0.00 0.00 0.00 0.00 0.00 0.00 0.00 0.00 0.00 0.00 0.00 0.00 0.00 0.00 0.00 0.00 0.00 0.00 0.00 0.00 0.00 0.00 0.00 0.00 0.01 0.00 0.00 0.00 0.00 0.00 0.00 0.00 0.00 0.00 0.00
0.00 0.00 0.00 0.00 0.00 0.00 0.00 0.00 0.00 0.00 0.00 0.00 0.00 0.00 0.00 0.00 0.00 0.00 0.00 0.00 0.00 0.00 0.00 0.00 0.00 0.00 0.00 0.00 0.00 0.00 0.00 0.00 0.00 0.00 0.00 0.00 0.00 0.00 0.00 0.00 0.00 0.00 0.00
0.00 0.00 0.00 0.00 0.00 0.00 0.00 0.00 0.00 0.00 0.00 0.00 0.00 0.00 0.00 0.00 0.00 0.00 0.00 0.00 0.00 0.00 0.00 0.00 0.00 0.00 0.00 0.00 0.00 0.00 0.00 0.00 0.00 0.00 0.00 0.00 0.00 0.00 0.00 0.00 0.00 0.00 0.00
0.00 0.00 0.00 0.00 0.00 0.00 0.00 0.00 0.00 0.00 0.00 0.00 0.00 0.00 0.00 0.00 0.00 0.00 0.00 0.00 0.00 0.00 0.00 0.00 0.00 0.00 0.00 0.00 0.00 0.00 0.00 0.01 0.01 0.01 0.01 0.00 0.00 0.00 0.00 0.00 0.00 0.00 0.00
0.00 0.00 0.00 0.00 0.00 0.00 0.00 0.00 0.00 0.00 0.00 0.00 0.00 0.00 0.00 0.00 0.00 0.00 0.00 0.00 0.00 0.00 0.00 0.00 0.00 0.00 0.00 0.00 0.00 0.00 0.01 0.03 0.04 0.04 0.03 0.01 0.01 0.00 0.00 0.00 0.00 0.00 0.00
0.00 0.00 0.00 0.00 0.00 0.00 0.00 0.00 0.00 0.00 0.00 0.00 0.00 0.00 0.00 0.00 0.00 0.00 0.00 0.01 0.00 0.00 0.00 0.00 0.00 0.00 0.00 0.00 0.00 0.01 0.02 0.05 0.07 0.07 0.06 0.04 0.02 0.01 0.01 0.02 0.02 0.02 0.01
0.00 0.00 0.00 0.00 0.00 0.00 0.00 0.00 0.00 0.00 0.00 0.00 0.00 0.00 0.00 0.00 0.01 0.01 0.01 0.02 0.01 0.01 0.01 0.00 0.00 0.00 0.00 0.00 0.00 0.01 0.01 0.02 0.04 0.07 0.08 0.04 0.02 0.02 0.04 0.05 0.04 0.05 0.03
0.00 0.00 0.00 0.00 0.00 0.00 0.00 0.00 0.00 0.00 0.00 0.00 0.01 0.01 0.01 0.01 0.01 0.01 0.02 0.03 0.03 0.02 0.01 0.01 0.01 0.00 0.00 0.01 0.01 0.03 0.03 0.02 0.02 0.03 0.04 0.03 0.02 0.04 0.08 0.13 0.14 0.11 0.05
0.00 0.00 0.00 0.00 0.00 0.00 0.00 0.00 0.00 0.00 0.01 0.01 0.01 0.01 0.01 0.01 0.02 0.02 0.03 0.05 0.04 0.02 0.01 0.01 0.02 0.01 0.01 0.03 0.07 0.08 0.05 0.03 0.02 0.03 0.05 0.06 0.07 0.10 0.13 0.21 0.23 0.20 0.12
0.00 0.00 0.00 0.00 0.00 0.00 0.00 0.01 0.01 0.01 0.02 0.02 0.02 0.01 0.01 0.01 0.02 0.03 0.04 0.06 0.05 0.03 0.02 0.02 0.02 0.03 0.04 0.07 0.14 0.16 0.13 0.05 0.04 0.06 0.07 0.07 0.06 0.07 0.08 0.11 0.13 0.20 0.17
0.00 0.00 0.00 0.00 0.00 0.00 0.01 0.02 0.02 0.03 0.03 0.03 0.03 0.02 0.02 0.02 0.03 0.04 0.04 0.07 0.07 0.07 0.05 0.04 0.02 0.04 0.07 0.11 0.18 0.21 0.15 0.13 0.20 0.21 0.19 0.16 0.13 0.11 0.10 0.09 0.07 0.11 0.16
0.01 0.01 0.01 0.01 0.01 0.02 0.03 0.03 0.04 0.04 0.05 0.06 0.05 0.04 0.03 0.03 0.03 0.04 0.05 0.08 0.09 0.13 0.10 0.05 0.04 0.06 0.11 0.16 0.20 0.19 0.17 0.23 0.33 0.30 0.25 0.20 0.15 0.11 0.09 0.08 0.08 0.07 0.08
0.02 0.02 0.03 0.03 0.04 0.04 0.05 0.07 0.08 0.08 0.09 0.08 0.07 0.06 0.04 0.04 0.04 0.05 0.07 0.09 0.11 0.13 0.10 0.09 0.11 0.13 0.17 0.20 0.20 0.20 0.25 0.32 0.35 0.29 0.20 0.12 0.08 0.07 0.11 0.15 0.18 0.17 0.15
0.04 0.04 0.05 0.07 0.08 0.09 0.10 0.12 0.13 0.14 0.15 0.15 0.13 0.11 0.10 0.08 0.07 0.08 0.14 0.21 0.23 0.22 0.18 0.17 0.18 0.22 0.28 0.29 0.28 0.29 0.33 0.32 0.27 0.22 0.16 0.12 0.12 0.17 0.22 0.26 0.30 0.31 0.34
0.04 0.05 0.05 0.07 0.09 0.11 0.13 0.13 0.14 0.15 0.17 0.26 0.29 0.29 0.30 0.24 0.18 0.25 0.36 0.44 0.42 0.38 0.38 0.41 0.38 0.36 0.39 0.37 0.35 0.34 0.33 0.32 0.29 0.26 0.27 0.28 0.26 0.26 0.25 0.25 0.28 0.32 0.37
0.05 0.04 0.04 0.05 0.06 0.07 0.08 0.10 0.11 0.13 0.17 0.25 0.30 0.35 0.34 0.30 0.35 0.47 0.51 0.52 0.50 0.47 0.58 0.55 0.41 0.34 0.30 0.27 0.28 0.29 0.29 0.31 0.29 0.31 0.34 0.33 0.31 0.29 0.29 0.30 0.32 0.34 0.35
0.05 0.05 0.05 0.05 0.05 0.06 0.06 0.07 0.08 0.11 0.13 0.16 0.20 0.23 0.27 0.30 0.38 0.47 0.56 0.62 0.61 0.57 0.62 0.44 0.33 0.30 0.29 0.29 0.30 0.30 0.29 0.28 0.32 0.37 0.39 0.37 0.35 0.35 0.34 0.34 0.34 0.36 0.36
0.03 0.04 0.04 0.05 0.05 0.05 0.06 0.06 0.08 0.10 0.13 0.14 0.14 0.17 0.22 0.28 0.37 0.46 0.58 0.77 0.77 0.56 0.39 0.28 0.29 0.32 0.34 0.34 0.34 0.34 0.33 0.33 0.35 0.37 0.38 0.36 0.36 0.38 0.37 0.33 0.31 0.32 0.34
0.03 0.04 0.04 0.05 0.05 0.05 0.06 0.07 0.09 0.11 0.12 0.13 0.15 0.17 0.20 0.25 0.34 0.43 0.55 0.67 0.51 0.35 0.25 0.25 0.32 0.38 0.39 0.38 0.36 0.34 0.33 0.31 0.30 0.32 0.35 0.35 0.35 0.38 0.37 0.31 0.30 0.31 0.34
0.05 0.04 0.05 0.07 0.08 0.08 0.08 0.10 0.12 0.13 0.14 0.14 0.14 0.15 0.22 0.33 0.38 0.37 0.41 0.40 0.38 0.33 0.27 0.30 0.37 0.42 0.42 0.40 0.37 0.34 0.34 0.33 0.31 0.32 0.32 0.32 0.33 0.36 0.36 0.33 0.33 0.34 0.34
0.10 0.09 0.09 0.12 0.13 0.12 0.13 0.15 0.15 0.17 0.17 0.16 0.14 0.16 0.29 0.34 0.25 0.24 0.30 0.36 0.37 0.34 0.31 0.31 0.36 0.39 0.38 0.37 0.35 0.33 0.32 0.31 0.29 0.29 0.28 0.28 0.30 0.32 0.31 0.32 0.33 0.34 0.36
0.14 0.14 0.16 0.18 0.20 0.22 0.22 0.22 0.23 0.23 0.21 0.20 0.19 0.24 0.32 0.31 0.25 0.25 0.28 0.31 0.33 0.33 0.33 0.32 0.33 0.35 0.36 0.35 0.33 0.31 0.29 0.26 0.25 0.26 0.26 0.26 0.27 0.27 0.28 0.29 0.30 0.31 0.32
0.14 0.16 0.18 0.19 0.22 0.24 0.25 0.25 0.25 0.24 0.23 0.23 0.24 0.27 0.28 0.23 0.21 0.22 0.23 0.26 0.29 0.31 0.32 0.32 0.31 0.31 0.30 0.29 0.28 0.26 0.24 0.23 0.24 0.25 0.26 0.24 0.23 0.23 0.24 0.26 0.26 0.27 0.27
0.14 0.15 0.15 0.17 0.19 0.20 0.21 0.22 0.23 0.23 0.23 0.24 0.24 0.21 0.20 0.20 0.22 0.23 0.25 0.26 0.26 0.25 0.25 0.24 0.23 0.22 0.20 0.19 0.18 0.18 0.19 0.21 0.23 0.24 0.22 0.21 0.20 0.19 0.21 0.23 0.25 0.26 0.27
0.13 0.14 0.14 0.15 0.16 0.17 0.18 0.19 0.20 0.21 0.21 0.21 0.20 0.20 0.22 0.23 0.22 0.22 0.22 0.21 0.20 0.18 0.17 0.16 0.15 0.15 0.14 0.13 0.13 0.13 0.14 0.16 0.18 0.18 0.18 0.18 0.17 0.16 0.17 0.20 0.23 0.25 0.27
0.12 0.12 0.13 0.14 0.14 0.15 0.15 0.16 0.16 0.17 0.17 0.17 0.18 0.19 0.20 0.20 0.19 0.18 0.17 0.16 0.15 0.13 0.12 0.11 0.11 0.11 0.10 0.11 0.11 0.12 0.13 0.15 0.17 0.15 0.15 0.14 0.13 0.13 0.13 0.15 0.17 0.20 0.23